Location: Unspecified
(0.0000°N, 0.0000°E)
Time: 17:58:01
(UTC+00:00)

STARLINK 1050 - Pass Details

Date: 17 January 2020
Orbit: 548 x 551 km, 53.0° (Epoch: 17 January)

Event Time Altitude Azimuth Distance (km) Brightness Sun altitude
Rises 18:34:48 0° 322° (NW) 2,699 7.4 -5.8°
Reaches altitude 10° 18:37:01 10° 320° (NW) 1,809 6.5 -6.3°
Maximum altitude 18:41:07 70° 237° (WSW) 582 4.0 -7.3°
Drops below altitude 10° 18:45:14 10° 152° (SSE) 1,819 6.2 -8.2°
Sets 18:47:29 0° 150° (SSE) 2,715 7.1 -8.7°
